FW1140 Weather Reports


Display with metric or nautical units.
time (UTC)temp
F
wind
direction
speed
MPH
gust
MPH
rain 1hr
in
rain 24hr
in
rain mn
in
humidity
%
barometer
mb
20260509131533 46 333 10.0 15.0 0.00 0.04 0.04 85 1006.5
20260509130035 45 319 13.0 17.0 0.00 0.04 0.04 86 1006.4
20260509124521 46 335 12.0 17.0 0.00 0.04 0.04 85 1006.0
20260509123019 45 332 13.0 19.0 0.00 0.04 0.04 86 1005.9
20260509121523 45 342 10.0 18.0 0.00 0.04 0.04 86 1005.8
20260509120013 45 354 11.0 18.0 0.00 0.04 0.04 86 1005.3
20260509114510 45 334 15.0 24.0 0.00 0.04 0.04 86 1004.8
20260509113007 46 350 13.0 20.0 0.00 0.04 0.04 86 1004.5
20260509111501 47 322 14.0 21.0 0.00 0.04 0.04 83 1004.2
20260509110107 48 1 12.0 17.0 0.00 0.04 0.04 83 1003.8
20260509104555 49 319 13.0 19.0 0.00 0.04 0.04 82 1003.6
20260509103101 50 308 11.0 21.0 0.00 0.04 0.04 81 1003.4
20260509101602 50 306 12.0 17.0 0.01 0.04 0.04 79 1003.2
20260509100051 50 319 8.0 14.0 0.04 0.04 0.04 79 1002.6
20260509094603 50 281 9.0 15.0 0.04 0.04 0.04 79 1002.6
20260509093050 49 262 10.0 15.0 0.04 0.04 0.04 81 1002.6
20260509091548 48 266 4.0 9.0 0.03 0.03 0.03 85 1002.8
20260509090057 48 281 3.0 6.0 0.00 0.00 0.00 83 1003.3
20260509084549 48 301 4.0 8.0 0.00 0.00 0.00 81 1003.0
20260509083053 48 319 4.0 11.0 0.00 0.00 0.00 79 1002.9
20260509081542 49 312 8.0 16.0 0.00 0.00 0.00 78 1002.8
20260509080040 50 338 11.0 19.0 0.00 0.00 0.00 76 1002.7
20260509074541 51 353 14.0 22.0 0.00 0.00 0.00 71 1002.2
20260509073035 52 354 14.0 23.0 0.00 0.00 0.00 62 1002.2
20260509071535 51 300 14.0 19.0 0.00 0.00 0.00 56 1001.6
20260509070026 50 331 13.0 19.0 0.00 0.00 0.00 55 1000.9
20260509064524 49 224 10.0 14.0 0.00 0.00 0.00 60 999.8
20260509063023 50 226 9.0 13.0 0.00 0.00 0.00 59 1000.0
20260509061522 50 228 11.0 15.0 0.00 0.00 0.00 58 1000.1
20260509060018 51 223 12.0 15.0 0.00 0.00 0.00 58 1000.2
20260509054515 50 231 10.0 14.0 0.00 0.00 0.00 58 1000.3
20260509053016 50 219 9.0 12.0 0.00 0.00 0.00 58 1000.3
20260509051510 50 228 9.0 14.0 0.00 0.00 0.00 58 1000.4
20260509050012 50 223 11.0 14.0 0.00 0.00 0.00 59 1000.6
20260509044506 49 212 10.0 12.0 0.00 0.00 0.00 61 1000.8
20260509043004 49 212 8.0 12.0 0.00 0.00 0.00 62 1001.1
20260509041502 49 208 8.0 10.0 0.00 0.00 0.00 59 1001.3
20260509040001 48 228 6.0 9.0 0.00 0.00 0.00 60 1001.6
20260509034503 48 241 6.0 9.0 0.00 0.00 0.00 61 1001.8
20260509033059 49 245 6.0 9.0 0.00 0.00 0.00 58 1002.0
20260509031602 49 235 6.0 9.0 0.00 0.00 0.00 56 1002.1
20260509030113 50 236 6.0 9.0 0.00 0.00 0.00 54 1002.3
20260509024602 54 236 6.0 9.0 0.00 0.00 0.00 46 1002.3
20260509023059 55 240 5.0 8.0 0.00 0.00 0.00 45 1002.3
20260509021558 57 243 6.0 9.0 0.00 0.00 0.00 42 1002.3
20260509020106 56 242 4.0 6.0 0.00 0.00 0.00 43 1002.2
20260509014557 60 280 5.0 8.0 0.00 0.00 0.00 37 1002.3
20260509013100 61 292 4.0 12.0 0.00 0.00 0.00 36 1002.2
20260509011558 62 304 6.0 12.0 0.00 0.00 0.00 35 1002.3
20260509010055 64 322 10.0 15.0 0.00 0.00 0.00 33 1002.1
20260509004600 65 302 11.0 17.0 0.00 0.00 0.00 32 1002.1
20260509003057 66 306 12.0 21.0 0.00 0.00 0.00 31 1002.2
20260509001554 67 314 16.0 21.0 0.00 0.00 0.00 31 1002.0
20260509000055 67 295 15.0 25.0 0.00 0.00 0.00 30 1002.0
20260508234553 68 304 16.0 25.0 0.00 0.00 0.00 29 1002.0
20260508233052 69 308 15.0 24.0 0.00 0.00 0.00 27 1002.0
20260508231551 69 299 19.0 27.0 0.00 0.00 0.00 26 1001.9
20260508230051 69 336 21.0 29.0 0.00 0.00 0.00 25 1001.9
20260508224620 69 321 19.0 27.0 0.00 0.00 0.00 26 1002.0
20260508223053 70 283 19.0 31.0 0.00 0.00 0.00 25 1001.9
20260508221550 70 340 20.0 26.0 0.00 0.00 0.00 24 1001.7
20260508220053 71 320 21.0 29.0 0.00 0.00 0.00 24 1001.8
20260508214551 71 316 22.0 31.0 0.00 0.00 0.00 24 1001.7
20260508213047 71 302 21.0 31.0 0.00 0.00 0.00 25 1001.7
20260508211552 71 329 15.0 29.0 0.00 0.00 0.00 28 1001.5
20260508210048 72 285 17.0 24.0 0.00 0.00 0.00 28 1001.5
20260508204546 71 293 13.0 27.0 0.00 0.00 0.00 29 1001.5
20260508203047 72 320 18.0 27.0 0.00 0.00 0.00 28 1001.5
20260508201545 72 276 18.0 31.0 0.00 0.00 0.00 27 1001.5
20260508200043 73 269 11.0 24.0 0.00 0.00 0.00 26 1001.6
20260508194542 72 317 16.0 24.0 0.00 0.00 0.00 26 1001.7
20260508193040 71 326 15.0 24.0 0.00 0.00 0.00 27 1001.9
20260508191546 71 340 19.0 30.0 0.00 0.00 0.00 27 1002.0
20260508190141 70 307 11.0 24.0 0.00 0.00 0.00 28 1002.0
20260508184539 72 323 21.0 29.0 0.00 0.00 0.00 27 1002.0
20260508183035 71 280 14.0 18.0 0.00 0.00 0.00 28 1002.3
20260508181535 70 266 11.0 21.0 0.00 0.00 0.00 27 1002.4
20260508180036 71 300 13.0 25.0 0.00 0.00 0.00 27 1002.6
20260508174530 68 279 13.0 18.0 0.00 0.00 0.00 29 1002.7
20260508173028 68 236 13.0 19.0 0.00 0.00 0.00 26 1002.9
20260508171528 69 268 13.0 19.0 0.00 0.00 0.00 26 1003.2
20260508170023 67 253 13.0 21.0 0.00 0.00 0.00 27 1003.5
20260508164521 66 263 12.0 21.0 0.00 0.00 0.00 28 1003.6
20260508163029 65 266 12.0 18.0 0.00 0.00 0.00 29 1003.7
20260508161520 66 236 15.0 20.0 0.00 0.00 0.00 28 1003.7
20260508160023 67 264 11.0 19.0 0.00 0.00 0.00 26 1003.7
20260508154519 66 265 11.0 21.0 0.00 0.00 0.00 30 1003.8
20260508153015 66 276 11.0 18.0 0.00 0.00 0.00 29 1004.0
20260508151512 65 260 12.0 19.0 0.00 0.00 0.00 30 1004.3
20260508150025 63 254 10.0 18.0 0.00 0.00 0.00 31 1004.5
20260508144506 63 226 13.0 20.0 0.00 0.00 0.00 30 1004.7
20260508143007 62 233 14.0 20.0 0.00 0.00 0.00 30 1004.8
20260508141605 62 250 13.0 19.0 0.00 0.00 0.00 31 1004.8
20260508140106 61 229 11.0 16.0 0.00 0.00 0.00 37 1004.9
20260508134549 60 240 11.0 18.0 0.00 0.00 0.00 38 1005.1
20260508133049 57 240 12.0 17.0 0.00 0.00 0.00 42 1005.5